Monument Pass, CO

5:06 AM MDT on June 29, 2017 (GMT -0600)
Monument Pass

Weather History for KMNH - January, 2012

Change the Weather History Date:

Sunday, January 8, 2012

  Actual Average Record
Temperature  
Mean Temperature 21 °F -  
Max Temperature 32 °F - 60 °F (2003)
Min Temperature 10 °F - 6 °F (2008)
Degree Days  
Heating Degree Days 44    
Month to date heating degree days  
Cooling Degree Days 0    
Month to date cooling degree days  
Moisture  
Dew Point 13 °F    
Average Humidity 74    
Maximum Humidity 100    
Minimum Humidity 35    
Precipitation  
Precipitation 0.01 in - 0.05 in (2016)
Sea Level Pressure  
Sea Level Pressure 30.10 in    
Wind  
Wind Speed 5 mph (WSW)    
Max Wind Speed 10 mph    
Max Gust Speed -    
Visibility 10 miles    
Events      
T = Trace of Precipitation, MM = Missing Value Source: NWS Daily Summary

Daily Weather History Graph

Daily Weather History Graph

Search for Another Location

Airport or City:

Trip Planner

Search our weather history database for the weather conditions in past years. The results will help you decide how hot, cold, wet, or windy it might be!

Date:

Astronomy

Jan. 08, 2012 Rise Set
Actual Time 7:18 AM MST 4:52 PM MST
Civil Twilight 6:48 AM MST 5:21 PM MST
Nautical Twilight 6:15 AM MST 5:55 PM MST
Astronomical Twilight 5:42 AM MST 6:27 PM MST
Moon 4:37 PM MST (1/8) 6:38 AM MST (1/8)
Length of Visible Light 10h 33m
Length of Day
9h 34m
Full, 100% of the Moon is Illuminated
Jan 8
Full
Jan 9
Full
Jan 16
Last Quarter
Jan 23
New
Jan 30
First Quarter

Hourly Weather History & Observations

Time (MST) Temp. Windchill Dew Point Humidity Pressure Visibility Wind Dir Wind Speed Gust Speed Precip Events Conditions
12:19 AM 21.2 °F 10.1 °F 19.4 °F 93% 30.07 in 10.0 mi NW 10.4 mph - N/A   Overcast
12:39 AM 21.2 °F 11.7 °F 19.4 °F 93% 30.07 in 10.0 mi NW 8.1 mph - N/A   Overcast
12:58 AM 21.2 °F 13.6 °F 19.4 °F 93% 30.07 in 10.0 mi NNW 5.8 mph - N/A   Overcast
1:19 AM 21.2 °F 13.6 °F 19.4 °F 93% 30.07 in 10.0 mi NW 5.8 mph - N/A   Overcast
1:39 AM 19.4 °F 10.4 °F 19.4 °F 100% 30.08 in 10.0 mi WNW 6.9 mph - N/A   Overcast
1:58 AM 19.4 °F 12.8 °F 19.4 °F 100% 30.08 in 10.0 mi WNW 4.6 mph - N/A   Overcast
2:19 AM 19.4 °F 11.5 °F 17.6 °F 93% 30.08 in 10.0 mi West 5.8 mph - N/A   Overcast
2:38 AM 19.4 °F 11.5 °F 17.6 °F 93% 30.08 in 10.0 mi West 5.8 mph - N/A   Overcast
2:59 AM 17.6 °F 8.2 °F 15.8 °F 93% 30.07 in 10.0 mi West 6.9 mph - N/A   Overcast
3:19 AM 15.8 °F 7.2 °F 14.0 °F 93% 30.07 in 10.0 mi West 5.8 mph - N/A   Mostly Cloudy
3:38 AM 14.0 °F 5.1 °F 12.2 °F 93% 30.06 in 10.0 mi West 5.8 mph - N/A   Scattered Clouds
3:59 AM 14.0 °F 5.1 °F 12.2 °F 93% 30.06 in 10.0 mi WSW 5.8 mph - N/A   Clear
4:19 AM 12.2 °F 2.9 °F 12.2 °F 100% 30.05 in 10.0 mi West 5.8 mph - N/A   Clear
4:38 AM 12.2 °F 1.7 °F 12.2 °F 100% 30.05 in 10.0 mi West 6.9 mph - N/A   Clear
5:19 AM 14.0 °F 6.5 °F 12.2 °F 93% 30.06 in 10.0 mi West 4.6 mph - N/A   Clear
5:39 AM 12.2 °F 6.1 °F 12.2 °F 100% 30.06 in 10.0 mi WSW 3.5 mph - N/A   Clear
5:59 AM 10.4 °F - 10.4 °F 100% 30.07 in 10.0 mi Calm Calm - N/A   Clear
6:19 AM 12.2 °F - 10.4 °F 92% 30.07 in 10.0 mi Calm Calm - N/A   Clear
6:39 AM 12.2 °F 6.1 °F 10.4 °F 92% 30.07 in 10.0 mi West 3.5 mph - N/A   Clear
6:58 AM 10.4 °F 0.8 °F 8.6 °F 92% 30.09 in 10.0 mi SSW 5.8 mph - N/A   Clear
7:19 AM 10.4 °F 4.0 °F 8.6 °F 92% 30.09 in 10.0 mi WSW 3.5 mph - N/A   Clear
7:38 AM 12.2 °F - 10.4 °F 92% 30.09 in 10.0 mi Calm Calm - N/A   Clear
7:59 AM 14.0 °F 6.5 °F 12.2 °F 93% 30.09 in 10.0 mi WSW 4.6 mph - N/A   Clear
8:19 AM 15.8 °F 7.2 °F 12.2 °F 86% 30.10 in 10.0 mi SW 5.8 mph - N/A   Clear
8:39 AM 17.6 °F 12.3 °F 14.0 °F 86% 30.11 in 10.0 mi SW 3.5 mph - N/A   Clear
8:59 AM 19.4 °F - 15.8 °F 86% 30.12 in 10.0 mi Calm Calm - N/A   Clear
9:19 AM 21.2 °F - 17.6 °F 86% 30.13 in 10.0 mi Calm Calm - N/A   Clear
9:38 AM 23.0 °F - 19.4 °F 86% 30.13 in 10.0 mi Calm Calm - N/A   Clear
9:59 AM 26.6 °F - 17.6 °F 69% 30.14 in 10.0 mi Calm Calm - N/A   Clear
10:19 AM 26.6 °F - 17.6 °F 69% 30.14 in 10.0 mi Calm Calm - 0.01 in   Clear
10:38 AM 28.4 °F - 17.6 °F 64% 30.14 in 10.0 mi Calm Calm - 0.01 in   Clear
10:59 AM 30.2 °F 26.7 °F 17.6 °F 60% 30.14 in 10.0 mi West 3.5 mph - N/A   Clear
11:19 AM 30.2 °F 26.7 °F 15.8 °F 55% 30.13 in 10.0 mi WSW 3.5 mph - N/A   Clear
11:39 AM 30.2 °F 26.7 °F 15.8 °F 55% 30.12 in 10.0 mi West 3.5 mph - N/A   Clear
12:18 PM 32.0 °F - 14.0 °F 48% 30.09 in 10.0 mi Calm Calm - N/A   Clear
12:39 PM 32.0 °F - 12.2 °F 44% 30.09 in 10.0 mi Calm Calm - N/A   Clear
12:58 PM 32.0 °F - 10.4 °F 41% 30.08 in 10.0 mi Calm Calm - N/A   Clear
1:39 PM 32.0 °F - 8.6 °F 38% 30.08 in 10.0 mi Calm Calm - N/A   Clear
1:59 PM 32.0 °F - 8.6 °F 38% 30.09 in 10.0 mi Calm Calm - N/A   Clear
2:18 PM 32.0 °F - 8.6 °F 38% 30.09 in 10.0 mi Calm Calm - N/A   Clear
2:39 PM 32.0 °F - 6.8 °F 35% 30.09 in 10.0 mi Calm Calm - N/A   Clear
2:59 PM 32.0 °F - 8.6 °F 38% 30.10 in 10.0 mi Calm Calm - N/A   Clear
3:19 PM 32.0 °F - 6.8 °F 35% 30.10 in 10.0 mi Calm Calm - N/A   Clear
3:38 PM 30.2 °F - 8.6 °F 40% 30.11 in 10.0 mi Calm Calm - N/A   Clear
3:59 PM 28.4 °F 24.6 °F 10.4 °F 47% 30.11 in 10.0 mi SSE 3.5 mph - N/A   Clear
4:19 PM 28.4 °F - 10.4 °F 47% 30.11 in 10.0 mi Calm Calm - N/A   Clear
4:39 PM 26.6 °F - 10.4 °F 51% 30.12 in 10.0 mi Calm Calm - N/A   Clear
4:59 PM 24.8 °F - 8.6 °F 50% 30.12 in 10.0 mi Calm Calm - N/A   Clear
5:18 PM 21.2 °F 16.4 °F 8.6 °F 58% 30.13 in 10.0 mi South 3.5 mph - N/A   Clear
5:39 PM 21.2 °F 16.4 °F 8.6 °F 58% 30.15 in 10.0 mi South 3.5 mph - N/A   Clear
5:59 PM 21.2 °F 13.6 °F 10.4 °F 63% 30.15 in 10.0 mi SSW 5.8 mph - N/A   Clear
6:18 PM 19.4 °F 11.5 °F 10.4 °F 68% 30.15 in 10.0 mi SSW 5.8 mph - N/A   Clear
6:38 PM 19.4 °F 10.4 °F 14.0 °F 80% 30.15 in 10.0 mi SSW 6.9 mph - N/A   Clear
6:59 PM 21.2 °F 14.9 °F 14.0 °F 74% 30.15 in 10.0 mi SSW 4.6 mph - N/A   Clear
7:19 PM 19.4 °F 9.5 °F 15.8 °F 86% 30.15 in 10.0 mi SSW 8.1 mph - N/A   Clear
7:39 PM 21.2 °F 10.9 °F 15.8 °F 80% 30.15 in 10.0 mi SSW 9.2 mph - N/A   Clear
7:58 PM 21.2 °F 10.1 °F 15.8 °F 80% 30.16 in 10.0 mi SW 10.4 mph - N/A   Clear
8:18 PM 21.2 °F 10.9 °F 15.8 °F 80% 30.17 in 10.0 mi SW 9.2 mph - N/A   Clear
8:39 PM 21.2 °F 10.9 °F 14.0 °F 74% 30.17 in 10.0 mi SSW 9.2 mph - N/A   Clear
8:59 PM 19.4 °F 10.4 °F 14.0 °F 80% 30.17 in 10.0 mi SSW 6.9 mph - N/A   Clear
9:19 PM 19.4 °F 9.5 °F 14.0 °F 80% 30.16 in 10.0 mi SSW 8.1 mph - N/A   Clear
9:39 PM 19.4 °F 9.5 °F 14.0 °F 80% 30.16 in 10.0 mi SSW 8.1 mph - N/A   Clear
9:59 PM 19.4 °F 9.5 °F 14.0 °F 80% 30.16 in 10.0 mi SSW 8.1 mph - N/A   Clear
10:18 PM 19.4 °F 9.5 °F 14.0 °F 80% 30.16 in 10.0 mi SSW 8.1 mph - N/A   Clear
10:39 PM 21.2 °F 11.7 °F 14.0 °F 74% 30.16 in 10.0 mi SW 8.1 mph - N/A   Clear
10:59 PM 19.4 °F 10.4 °F 12.2 °F 74% 30.16 in 10.0 mi SSW 6.9 mph - N/A   Clear
11:19 PM 19.4 °F 9.5 °F 12.2 °F 74% 30.16 in 10.0 mi SSW 8.1 mph - N/A   Clear
11:39 PM 21.2 °F 12.6 °F 12.2 °F 68% 30.17 in 10.0 mi WSW 6.9 mph - N/A   Clear
11:58 PM 19.4 °F 11.5 °F 12.2 °F 74% 30.16 in 10.0 mi SW 5.8 mph - N/A   Clear